Home   Weather   Lille   Past weeks

Flag for France Past Weather in Lille, Nord-Pas-de-Calais, France — Yesterday and Last 2 Weeks

Now
32 °F

Ice fog.


Feels Like: 32 °F
Forecast: 25 / 36 °F
Wind: 2 mph from North

Location: Lille Airport

Current Time: Jan 24, 2017 at 8:53:49 pm

Latest Report: Jan 24, 2017 at 8:00 pm


Visibility: 0 mi

Pressure: 30.42 "Hg

Humidity: 100%

Dew Point: 32 °F

Location of LilleLocation

Past Weather in Lille — Graph

°F

Lille Temperature Yesterday

Maximum temperature yesterday: 36 °F (at 12:00 pm)
Minimum temperature yesterday: 27 °F (at 12:30 am)
Average temperature yesterday: 32 °F

High & Low Weather Summary for the Past Weeks

 TemperatureHumidityPressure
High54 °F (Jan 11, 1:30 pm)100% (Jan 9, 8:30 pm)30.66 "Hg (Jan 9, 8:30 pm)
Low21 °F (Jan 22, 8:00 am)51% (Jan 20, 9:00 pm)28.94 "Hg (Jan 12, 9:30 pm)
Average34 °F86%30.21 "Hg
* Reported Jan 9 7:00 pm — Jan 24 7:30 pm, Lille, Weather by CustomWeather, © 2017

Note: Actual official high and low records may vary slightly from our data, if they occured in-between our weather recording intervals... More about our weather records

Advertising

Lille Weather History for the Previous 24 Hours

Scroll right to see more
 ConditionsComfort  
Time TempWeatherWind HumidityBarometerVisibility
7:30 pm
Tue, Jan 24
32 °FIce fog.3 mph100%30.42 "Hg0 mi
7:00 pm32 °FFog.2 mph100%30.39 "Hg0 mi
6:30 pm32 °FFog.3 mph100%30.39 "Hg0 mi
6:00 pm32 °FFog.3 mph100%30.39 "Hg0 mi
5:30 pm32 °FFog.5 mph100%30.39 "Hg0 mi
5:00 pm34 °FFog.3 mph100%30.39 "Hg0 mi
4:30 pm34 °FFog.5 mph100%30.39 "Hg0 mi
4:00 pm34 °FFog.3 mph100%30.39 "Hg0 mi
3:30 pm34 °FFog.1 mph100%30.39 "Hg0 mi
3:00 pm34 °FFog.2 mph100%30.36 "Hg0 mi
2:30 pm34 °FFog.2 mph100%30.36 "Hg0 mi
2:00 pm34 °FFog.1 mph100%30.39 "Hg0 mi
1:30 pm34 °FFog.2 mph100%30.39 "Hg0 mi
1:00 pm34 °FFog.2 mph100%30.39 "Hg0 mi
12:30 pm36 °FFog.2 mph100%30.39 "Hg0 mi
12:00 pm34 °FFog.No wind100%30.39 "Hg0 mi
11:30 am34 °FFog.2 mph100%30.39 "Hg0 mi
11:00 am34 °FFog.2 mph100%30.39 "Hg0 mi
10:30 am34 °FFog.3 mph100%30.36 "Hg0 mi
10:00 am32 °FFog.2 mph100%30.36 "Hg0 mi
9:30 am32 °FFog.No wind100%30.36 "Hg0 mi
9:00 am32 °FFog.2 mph100%30.36 "Hg0 mi
8:30 am32 °FFog.2 mph100%30.36 "Hg0 mi
8:00 am32 °FFog.1 mph100%30.33 "Hg0 mi
7:30 am32 °FFog.2 mph100%30.33 "Hg0 mi
7:00 am32 °FFog.2 mph100%30.33 "Hg0 mi
6:30 am32 °FFog.2 mph100%30.33 "Hg0 mi
6:00 am32 °FFog.2 mph100%30.33 "Hg0 mi
5:30 am32 °FFog.1 mph100%30.33 "Hg0 mi
5:00 am32 °FIce fog.3 mph100%30.33 "Hg0 mi
4:30 am32 °FIce fog.3 mph100%30.33 "Hg0 mi
4:00 am32 °FIce fog.2 mph100%30.33 "Hg1 mi
3:30 am32 °FIce fog.2 mph100%30.33 "Hg1 mi
3:00 am30 °FIce fog.2 mph100%30.33 "Hg0 mi
2:30 am30 °FIce fog.1 mph100%30.33 "Hg0 mi
2:00 am30 °FIce fog.1 mph100%30.33 "Hg1 mi
1:30 am30 °FIce fog.3 mph100%30.33 "Hg1 mi
1:00 am30 °FIce fog.3 mph100%30.33 "Hg0 mi
12:30 am30 °FIce fog.5 mph100%30.33 "Hg0 mi
12:00 am30 °FIce fog.5 mph100%30.33 "Hg1 mi
11:30 pm
Mon, Jan 23
30 °FIce fog.5 mph100%30.36 "Hg0 mi
11:00 pm30 °FIce fog.3 mph100%30.36 "Hg0 mi
10:30 pm30 °FIce fog.3 mph100%30.36 "Hg0 mi
10:00 pm30 °FIce fog.2 mph100%30.36 "Hg0 mi
9:30 pm30 °FIce fog.3 mph100%30.36 "Hg0 mi
9:00 pm30 °FIce fog.No wind100%30.36 "Hg1 mi
8:30 pm30 °FIce fog.5 mph100%30.36 "Hg1 mi
8:00 pm30 °FIce fog.3 mph100%30.36 "Hg1 mi
Weather by CustomWeather, © 2017

See weather overviewHow to use our weather pages